User: anonymous   Login
Location: Unspecified
(0.0000°N, 0.0000°E)
Time: 19:54:18
(UTC+01:00)
Language:

Cosmos 1538 Rocket - Orbit

View from above orbital plane
View from above orbital plane
View from above satellite
View from above satellite

Ground track
Ground track

The orbit data is extracted from the following two-line orbital elements,

1 14760U 84019B   16039.27155700  .00000136  00000-0  56079-4 0  9997
2 14760  74.0452 309.6965 0028998 290.0056 204.7612 14.35753369672551
Epoch (UTC): 08 February 2016 06:31:02
Eccentricity: 0.0028998
inclination: 74.0452°
perigee height: 752 km
apogee height: 793 km
right ascension of ascending node: 309.6965°
argument of perigee: 290.0056°
revolutions per day: 14.35753369
mean anomaly at epoch: 204.7612°
orbit number at epoch: 67255

The dashed part of the orbit path shows where the satellite is in the earth's shadow,  

DLR